x

Ilm2 - 5 Miles Se Of Wrightsville Beach, Nc (41038) Weather Station

5:08 - Mon 26th Jun 2017 All times are EDT. -4 hours from GMT.

  • Wind
    4mph, 9mph gusts
  • Sea Temp 80°f
  • Air Temp 78°f
  • Sea Pressure 1017mb
  • Ilm2 - 5 Miles Se Of Wrightsville Beach, Nc
  • Ilm2 - 5 Miles Se Of Wrightsville Beach, Nc

More Historic Weather Station data

Upgrade to MSW Pro to gain access to the past 30 days of data for over 8000 Wavebouys and Weather Stations around the globe.

Join Pro

Comparision Forecast

View Surf forecast
   
lun. 06/26 5:08 4 9 mph 1017mb 80f 78f
4:08 9 13 mph 1017.8mb 80f 78f
3:08 9 13 mph 1018.2mb 79f 79f
2:08 9 13 mph 1018.6mb 79f 78f
1:08 11 18 mph 1019.1mb 79f 78f
12:08 11 16 mph 1019.2mb 79f 77f
11:08 11 20 mph 1019.2mb 79f 76f
10:08 11 18 mph 1018.9mb 79f 76f
9:08 16 25 mph 1018.9mb 79f 76f
8:08 16 22 mph 1018.5mb 79f 76f
7:08 13 20 mph 1018.1mb 79f 78f
6:08 9 11 mph 1017.8mb 79f 77f
5:08 7 13 mph 1017.5mb 79f 78f
4:08 4 7 mph 1017.5mb 79f 77f
3:08 7 13 mph 1017.7mb 79f 76f
2:08 7 13 mph 1017.8mb 80f 76f
1:08 4 9 mph 1018mb 79f 76f
12:08 4 9 mph 1018mb 79f 76f
dim. 06/25 11:08 4 9 mph 1017.9mb 79f 76f
10:08 7 11 mph 1018.1mb 80f 78f
9:08 7 11 mph 1017.4mb 80f 78f
8:08 18 36 mph 1017.8mb 80f 76f
7:08 13 20 mph 1017.1mb 80f 80f
6:08 16 18 mph 1016.3mb 80f 81f
5:08 11 18 mph 1016.5mb 80f 81f
4:08 9 13 mph 1016.2mb 80f 81f
3:08 7 9 mph 1016.6mb 80f 81f
2:08 11 13 mph 1016.9mb 80f 80f
1:08 11 13 mph 1017.4mb 80f 80f
12:08 7 9 mph 1017.6mb 80f 80f
11:08 7 9 mph 1017.9mb 80f 79f
10:08 4 9 mph 1017.5mb 79f 79f
9:08 7 9 mph 1017.2mb 79f 78f
8:08 9 13 mph 1016.7mb 79f 78f
7:08 11 16 mph 1016.7mb 79f 78f
6:08 9 13 mph 1016.4mb 79f 80f
5:08 9 16 mph 1016.2mb 79f 80f
4:08 9 16 mph 1016.2mb 79f 80f
3:08 9 16 mph 1016mb 79f 79f
2:08 11 18 mph 1016.5mb 79f 79f
1:08 7 11 mph 1017.3mb 79f 79f
12:08 7 13 mph 1017mb 80f 78f
sam. 06/24 11:08 11 22 mph 1016.5mb 80f 78f
10:08 7 16 mph 1016.1mb 80f 80f
9:08 9 16 mph 1015.2mb 80f 81f
8:08 11 22 mph 1014.9mb 80f 81f
7:08 18 29 mph 1014.1mb 79f 80f
6:08 16 27 mph 1014.3mb 79f 81f
5:08 16 25 mph 1013.7mb 79f 80f
4:08 16 25 mph 1014.6mb 79f 81f
3:08 16 25 mph 1014.8mb 79f 80f
2:08 11 25 mph 1015.1mb 78f 80f
1:08 13 25 mph 1015.3mb 78f 81f
12:08 13 22 mph 1015.5mb 78f 80f
11:08 16 22 mph 1015mb 78f 80f
10:08 16 22 mph 1014.6mb 78f 80f
9:08 16 25 mph 1014.6mb 78f 80f
8:08 20 29 mph 1014mb 78f 80f
7:08 16 29 mph 1014.1mb 78f 80f
6:08 20 31 mph 1013.9mb 78f 80f
5:08 18 31 mph 1013.8mb 78f 80f
4:08 16 27 mph 1013.9mb 78f 80f
3:08 16 29 mph 1013.6mb 78f 80f
2:08 13 27 mph 1014.3mb 78f 80f
1:08 16 25 mph 1015.1mb 78f 80f
12:08 16 29 mph 1015.2mb 79f 80f
ven. 06/23 11:08 13 27 mph 1015.1mb 79f 80f
10:08 13 22 mph 1015mb 79f 80f
9:08 13 25 mph 1014.4mb 79f 80f
8:08 11 25 mph 1014mb 80f 80f
7:08 13 22 mph 1014mb 80f 81f
6:08 16 25 mph 1014.1mb 80f 81f
5:08 16 25 mph 1014.7mb 80f 81f
4:08 16 25 mph 1015.2mb 80f 81f
3:08 13 25 mph 1015.7mb 79f 81f
2:08 22 29 mph 1015.6mb 79f 81f
1:08 20 27 mph 1016mb 79f 80f
12:08 13 20 mph 1016.9mb 79f 80f
11:08 11 20 mph 1017mb 79f 81f
10:08 9 16 mph 1017.1mb 79f 80f
9:08 9 16 mph 1017.4mb 79f 80f
8:08 13 20 mph 1016.9mb 79f 80f
7:08 13 18 mph 1016.5mb 79f 80f
6:08 11 16 mph 1016.8mb 79f 80f
5:08 11 18 mph 1016.4mb 79f 80f
4:08 9 16 mph 1016.7mb 79f 80f
2:08 9 16 mph 1017.6mb 79f 80f
1:08 9 16 mph 1018.1mb 79f 80f
12:08 11 16 mph 1018.5mb 79f 80f
jeu. 06/22 11:08 9 13 mph 1018.2mb 79f 80f